Regional Weather Roundup
Issued by NWS

Home | Current Version | Previous Version | Text Only | Print | Product List | Glossary Off
Versions: 1 2 3 4 5 6 7 8 9 10 11 12 13 14 15 16 17 18 19 20 21 22 23 24 25 26 27 28 29 30 31 32 33 34 35 36 37 38 39 40 41 42 43 44 45 46 47 48 49 50

000
ASUS43 KMPX 151610
RWRMN
WEATHER ROUNDUP FOR MINNESOTA
NATIONAL WEATHER SERVICE TWIN CITIES/CHANHASSEN MN
1000 AM CST FRI DEC 15 2017


NOTE: "FAIR" INDICATES FEW OR NO CLOUDS BELOW 12,000 FEET WITH NO
SIGNIFICANT WEATHER AND/OR OBSTRUCTIONS TO VISIBILITY. N/A MEANS
CURRENT SKY AND/OR WEATHER CONDITIONS ARE NOT AVAILABLE.

MNZ060>063-068>070-151700-
   Twin Cities Metro

CITY           SKY/WX    TMP DP  RH WIND       PRES   REMARKS
TWIN CITIES    CLOUDY    25  21  85 VRB3      29.88F
ST PAUL        CLOUDY    23  17  78 N5        29.90F WCI  17
CRYSTAL        CLOUDY    21  13  71 N6        29.88S WCI  13
BLAINE         PTSUNNY   21  16  79 NE3       29.88S
LAKEVILLE        N/A     25  21  86 CALM      29.87F
EDEN PRAIRIE   CLOUDY    26  20  77 NW3       29.87F
SOUTH ST PAUL  CLOUDY    24  19  80 CALM      29.88F
LAKE ELMO      CLOUDY    21  14  73 N3        29.89F
$$
MNZ001>005-007-008-013>017-022>024-027-028-151700-
   Northwest Minnesota

CITY           SKY/WX    TMP DP  RH WIND       PRES   REMARKS
BEMIDJI        LGT SNOW   8   4  83 CALM      29.82R
HALLOCK        LGT SNOW  14  10  85 SE9       29.82F WCI   2
ROSEAU         CLOUDY     9   3  78 SE3       29.83F
WARROAD        CLOUDY     7   3  85 SW5       29.84S WCI  -2
THIEF RVR FALL FLURRIES  12   9  87 SE6       29.83S WCI   3
CROOKSTON      FLURRIES  16  14  93 S6        29.85R WCI   7
FOSSTON        CLOUDY    10   7  85 SE5       29.84R WCI   2
DETROIT LAKES  CLOUDY    18  16  93 CALM      29.83S
MOORHEAD       MIX PCPN  19  16  86 CALM      29.86R
PARK RAPIDS    CLOUDY    11   7  84 CALM      29.81S
MAHNOMEN       CLOUDY    13  10  89 SE3       29.84R
$$
MNZ006-009>011-018-025>026-151700-
   North Central Minnesota

CITY           SKY/WX    TMP DP  RH WIND       PRES   REMARKS
BAUDETTE       CLOUDY     7   3  84 SW5       29.83S WCI  -2
FLAG ISLAND    CLOUDY     7   1  78 SW6       29.83R WCI  -3
INTL FALLS     CLOUDY     6   0  76 CALM      29.83F
WASKISH        FLURRIES   9   3  78 CALM      29.83S
BIG FORK       CLOUDY     9   3  78 SW5       29.82F WCI   0
LONGVILLE      LGT SNOW  10   7  85 CALM      29.83F
GRAND RAPIDS   FLURRIES   9   4  80 SW6       29.85S WCI  -1
CRANE LAKE     CLOUDY     7   1  78 CALM      29.84F
ORR            CLOUDY     7   0  72 W5        29.79S WCI  -2
COOK           CLOUDY     7   1  78 CALM      29.82S
WALKER         LGT SNOW   8   4  84 CALM      29.83S
$$
MNZ012-019>021-037-151700-
   Northeast Minnesota

CITY           SKY/WX    TMP DP  RH WIND       PRES   REMARKS
DULUTH         CLOUDY     9   3  77 NW7       29.81S WCI  -2
ELY            CLOUDY     7   1  78 CALM      29.79S
HIBBING        LGT SNOW   6   1  80 NW6       29.82S WCI  -4
EVELETH        FLURRIES   6  -1  72 NW3       29.83S
DULUTH HARBOR  CLOUDY    16   7  67 NW12      29.89S WCI   3
TWO HARBORS    PTSUNNY   16   5  62 NW5       29.82S WCI   9
SILVER BAY     CLOUDY    12   3  67 NW3       29.81R
GRAND MARAIS     N/A     12   1  61 VRB5      29.84R WCI   4
G MARAIS ARPRT MOSUNNY    5  -4  66 NW7G16    29.72R HAZE    WCI  -7
$$
MNZ029>031-032-039>041-046>048-054>057-064-151700-
   West Central Minnesota

CITY           SKY/WX    TMP DP  RH WIND       PRES   REMARKS
FERGUS FALLS   FLURRIES  19  16  86 S3        29.87F
WHEATON        CLOUDY    23  19  86 SE5       29.87S WCI  17
MORRIS         LGT SNOW  25  19  80 CALM      29.84F
ALEXANDRIA     CLOUDY    20  15  81 CALM      29.84F
ELBOW LAKE     PTSUNNY   21  19  90 E5        29.84F WCI  15
WADENA         CLOUDY    14  10  85 CALM      29.83S
GLENWOOD       CLOUDY    21  18  86 CALM      29.84F
APPLETON         N/A     27  25  93 E3        29.86S
BENSON         CLOUDY    27  21  80 CALM      29.87F
ORTONVILLE     CLOUDY    25  21  86 SE3       29.85S
MADISON        CLOUDY    30  30 100 E3        29.86F
WILLMAR        CLOUDY    27  21  80 CALM      29.87F
$$
MNZ033>034-036-042>043-049>051-058-059-151700-
   Central Minnesota

CITY           SKY/WX    TMP DP  RH WIND       PRES   REMARKS
ST CLOUD       CLOUDY    19  15  84 CALM      29.87F
SAUK CENTRE    CLOUDY    19  14  81 CALM      29.86S
PAYNESVILLE    CLOUDY    23  19  86 CALM      29.87S
AITKIN         CLOUDY    14   7  73 W3        29.83F
PINE RIVER     CLOUDY    12   7  79 CALM      29.86F
BRAINERD       CLOUDY    17   9  70 CALM      29.84F
STAPLES        CLOUDY    14  10  85 CALM      29.83S
LITTLE FALLS   CLOUDY    18  10  73 CALM      29.86F
LITCHFIELD     CLOUDY    25  21  86 CALM      29.87S
BUFFALO        CLOUDY    21  16  79 NW3       29.90S
MAPLE LAKE     CLOUDY    22  18  83 N5        29.89R WCI  16
HUTCHINSON     CLOUDY    26  23  91 CALM      29.88F
$$
MNZ037-044-045-052-053-151700-
   East Central Minnesota

CITY           SKY/WX    TMP DP  RH WIND       PRES   REMARKS
PRINCETON      CLOUDY    19  12  73 NW5       29.88S WCI  13
MORA           CLOUDY    18  10  73 W6        29.89S WCI   9
CAMBRIDGE      FLURRIES  18   9  68 CALM      29.89S
RUSH CITY      CLOUDY    17   9  72 NW3       29.89S
MOOSE LAKE     CLOUDY    14   5  67 CALM      29.84S
HINCKLEY       PTSUNNY   18  10  73 W5        29.88S WCI  11
CLOQUET        CLOUDY    10   1  67 W7        29.84R WCI   0
MCGREGOR       CLOUDY    14   9  79 N3        29.85S
$$
MNZ071>073-080-081-089-090-097-098-151700-
   Southwest Minnesota

CITY           SKY/WX    TMP DP  RH WIND       PRES   REMARKS
MONTEVIDEO     CLOUDY    27  27 100 SE3       29.86F
GRANITE FALLS  PTSUNNY   31  29  93 CALM      29.88F FOG
CANBY          PTSUNNY   32  29  89 NE3       29.86F
MARSHALL       CLOUDY    33  28  81 W7        29.87F WCI  27
REDWOOD FALLS  LGT SNOW  32  30  92 W5        29.87S FOG     WCI  27
OLIVIA         FLURRIES  28  25  86 E3        29.86S
PIPESTONE      MOSUNNY   30  27  86 W13       29.84F WCI  20
WINDOM           N/A     32  19  59 W9        29.88R WCI  24
WORTHINGTON    CLOUDY    32  28  85 W14       29.88S WCI  22
JACKSON        CLOUDY    32  28  86 MISG      29.88S
SLAYTON        PTSUNNY   31  28  89 W8        29.87S WCI  24
$$
MNZ065>067-074>077-082>085-091>093-151700-
   South Central Minnesota

CITY           SKY/WX    TMP DP  RH WIND       PRES   REMARKS
MANKATO        FLURRIES  29  27  92 W3        29.88F
NEW ULM        CLOUDY    30  27  86 W7        29.87F WCI  23
ST JAMES       CLOUDY    32  28  86 W12       29.89S WCI  23
FAIRMONT       FLURRIES  32  28  85 W10       29.90R WCI  24
GLENCOE        CLOUDY    26  24  89 CALM      29.88S
FARIBAULT      CLOUDY    27  25  93 N5        29.88S WCI  21
OWATONNA       CLOUDY    28  27  93 W5        29.87S WCI  23
WASECA         CLOUDY    30  28  93 W3        29.89S
ALBERT LEA     CLOUDY    30  27  86 W6        29.88S WCI  24
$$
MNZ078>079-086>088-094>096-151700-
   Southeast Minnesota

CITY           SKY/WX    TMP DP  RH WIND       PRES   REMARKS
ROCHESTER      CLOUDY    26  25  96 SW9       29.87S WCI  17
RED WING       CLOUDY    27  18  69 NW5       29.88F WCI  21
STANTON        CLOUDY    27  23  83 NW3       29.87F
DODGE CENTER   CLOUDY    27  25  93 W6        29.86S WCI  20
WINONA           N/A     28  21  74 W3        29.91S
AUSTIN         MIX PCPN  28  27  93 W6        29.88R WCI  22
PRESTON        FLURRIES  26  24  89 SW8       29.88R WCI  18
$$
ABBREVIATIONS USED IN REMARKS
   TC - TEMPERATURES IN CELSIUS
  WCI - WIND CHILL INDEX
   HX - HEAT INDEX
  VSB - VISIBILITY
$$



USA.gov is the U.S. government's official web portal to all federal, state and local government web resources and services.